Location: Unspecified
(0.0000°N, 0.0000°E)
Time: 09:31:43
(UTC+00:00)

Envisat - Pass Details

Date: 23 June 2017
Orbit: 764 x 766 km, 98.2° (Epoch: 16 October)

Event Time Altitude Azimuth Distance (km) Brightness Sun altitude
Exits shadow 20:38:20 24° 343° (NNW) 1,533 4.9 -35.3°
Drops below altitude 10° 20:40:18 10° 345° (NNW) 2,291 5.9 -35.7°
Sets 20:42:35 0° 346° (NNW) 3,214 6.7 -36.2°
